This demonstration page uses our WeatherBlox Daily Observations layout. Learn more.

41.55636, -103.73856

Hourly Observations for May 11, 2017

Temp ( °F °C ) Dew Point ( °F °C ) Humidity (%) Winds ( mph kmh ) Pressure ( in mb ) Visibility ( mi km ) Precip ( " mm )
12:53 am 00:53 Clear 42 5.6 40 4.4 92 92 NNE 6 9 30.11 1020 10 16.0934 0 0
1:53 am 01:53 Clear with Mist and Fog 39 3.9 37 2.8 93 93 NW 7 11 30.11 1020 6 9.65604 0 0
2:16 am 02:16 Mostly Clear with Mist and Fog 39 4 37 3 93 93 NW 7 11 30.18 1022 2.5 4.02335 0 0
2:19 am 02:19 Mostly Cloudy with Mist and Fog 40 4.4 38 3.3 93 93 NW 5 7 30.18 1022 1 1.60934 0 0
2:29 am 02:29 Mostly Clear with Mist and Fog 39 3.9 37 2.8 93 93 NW 6 9 30.18 1022 2 3.21868 0 0
2:37 am 02:37 Mostly Clear with Mist and Fog 39 3.9 37 2.8 93 93 NW 5 7 30.18 1022 5 8.0467 0 0
2:44 am 02:44 Partly Cloudy with Mist and Fog 37 3 37 3 100 100 NW 6 9 30.21 1023 1.5 2.41401 0 0
2:48 am 02:48 Mostly Cloudy with Mist and Fog 37 3 37 3 100 100 NW 7 11 30.21 1023 0.75 1.207005 0 0
2:53 am 02:53 Mostly Cloudy with Fog 39 3.9 37 2.8 93 93 NW 7 11 30.12 1020 0.5 0.80467 0 0
3:18 am 03:18 Mostly Clear with Mist and Fog 37 3 36 2 93 93 NW 6 9 30.21 1023 2.5 4.02335 0 0
3:36 am 03:36 Clear with Mist and Fog 38 3.3 36 2.2 93 93 NW 8 13 30.18 1022 4 6.43736 0 0
3:53 am 03:53 Clear with Mist and Fog 38 3.3 36 2.2 93 93 NW 8 13 30.13 1020 5 8.0467 0 0
4:38 am 04:38 Mostly Clear with Mist and Fog 37 3 36 2 93 93 NW 6 9 30.21 1023 2.5 4.02335 0 0
4:41 am 04:41 Mostly Cloudy with Mist and Fog 37 2.8 35 1.7 93 93 NW 6 9 30.21 1023 1 1.60934 0 0
4:48 am 04:48 Mostly Cloudy with Fog 36 2 36 2 100 100 WNW 6 9 30.21 1023 0.5 0.80467 0 0
4:53 am 04:53 Mostly Cloudy with Fog 36 2.2 35 1.7 97 97 WNW 5 7 30.14 1021 0.25 0.402335 0 0
5:12 am 05:12 Mostly Cloudy with Fog 36 2 34 1 93 93 NW 6 9 30.21 1023 0.5 0.80467 0 0
5:44 am 05:44 Mostly Cloudy with Fog 36 2 34 1 93 93 NW 3 6 30.21 1023 0.25 0.402335 0 0
5:53 am 05:53 Mostly Cloudy with Fog 35 1.7 33 0.6 93 93 NW 5 7 30.16 1022 0.25 0.402335 0 0
6:53 am 06:53 Mostly Cloudy with Fog 39 3.9 37 2.8 93 93 WNW 6 9 30.17 1022 0.25 0.402335 0 0
7:15 am 07:15 Mostly Cloudy with Mist and Fog 41 5 39 3.9 93 93 NW 7 11 30.21 1023 1 1.60934 0 0
7:23 am 07:23 Mostly Cloudy 42 5.6 41 5 96 96 NW 7 11 30.18 1022 7 11.26538 0 0
7:53 am 07:53 Mostly Sunny 44 6.7 42 5.6 93 93 NW 6 9 30.17 1022 10 16.0934 0 0
8:53 am 08:53 Sunny 50 10 46 7.8 86 86 W 6 9 30.16 1022 10 16.0934 0 0
9:53 am 09:53 Sunny 57 13.9 46 7.8 67 67 SSW 5 7 30.16 1021 10 16.0934 0 0
10:53 am 10:53 Sunny 60 15.6 44 6.7 56 56 SSE 7 11 30.14 1021 10 16.0934 0 0
11:53 am 11:53 Sunny 61 16.1 43 6.1 52 52 Calm 30.14 1021 10 16.0934 0 0
12:53 pm 12:53 Sunny 64 17.8 40 4.4 41 41 VRB 3 6 30.13 1020 10 16.0934 0 0
1:53 pm 13:53 Partly Cloudy 66 18.9 41 5 40 40 SSE 8 13 30.12 1020 10 16.0934 0 0
2:53 pm 14:53 Mostly Sunny 68 20 41 5 38 38 S 12 19 30.1 1019 10 16.0934 0 0
3:53 pm 15:53 Sunny 68 20 40 4.4 36 36 SSE 9 15 30.09 1019 10 16.0934 0 0
4:53 pm 16:53 Sunny 69 20.6 40 4.4 35 35 S 6 9 30.07 1018 10 16.0934 0 0
5:53 pm 17:53 Sunny 68 20 40 4.4 36 36 SE 12 19 30.07 1018 10 16.0934 0 0
6:53 pm 18:53 Sunny 67 19.4 41 5 39 39 SE 12 19 30.06 1018 10 16.0934 0 0
7:53 pm 19:53 Sunny 61 16.1 43 6.1 52 52 ESE 9 15 30.07 1018 10 16.0934 0 0
8:53 pm 20:53 Clear 55 12.8 43 6.1 64 64 ESE 7 11 30.07 1018 10 16.0934 0 0
9:53 pm 21:53 Clear 55 12.8 43 6.1 64 64 SE 9 15 30.06 1018 10 16.0934 0 0
10:53 pm 22:53 Clear 48 8.9 41 5 77 77 ESE 7 11 30.08 1019 10 16.0934 0 0
11:53 pm 23:53 Clear 47 8.3 40 4.4 77 77 E 9 15 30.09 1019 10 16.0934 0 0

Powered by AerisWeather